Voltar ao catálogo

GALILEO 10 (206)

AtivoNavegaçãoMEO
NORAD 40890·PAYLOAD·🇪🇺 EU

Lançado Sep 11, 2015 de Guiana Space Centre

Loading…

Próximas Passagens (próximas 24 horas)

TLE

AtualizadoSource: CelesTrak SupGP

Época: Sep 13, 2026, 23:59 UTC

1 40890C 15045B   26256.99979167  .00000000  00000+0  00000+0 0  2568
2 40890  54.9247 219.1530 0002666 351.2001 349.3656  1.70473263    17

Acompanhe GALILEO 10 (206) em tempo real com AllMySat

Download on the App Store